This is the latest recevied weather packets stored in our database for station/object SQ5TM-1. If no packets are shown the sender has not sent any weather packets the latest 10 day(s).
| Time | Temp. | Humidity | Pressure | Rain* | Wind** | Luminosity | Snow |
|---|---|---|---|---|---|---|---|
| 1777293294 | 19.44° C | 26% | 1008 hPa | - | - | 0 W/m² | - |
| 1777292370 | 19.44° C | 27% | 1008 hPa | - | - | 0 W/m² | - |
| 1777291907 | 17.22° C | 27% | 1008 hPa | - | - | 0 W/m² | - |
| 1777290982 | 19.44° C | 26% | 1008 hPa | - | - | 0 W/m² | - |
| 1777290058 | 17.78° C | 27% | 1009 hPa | - | - | 0 W/m² | - |
| 1777289134 | 20° C | 27% | 1009 hPa | - | - | 0 W/m² | - |
| 1777288210 | 17.78° C | 28% | 1009 hPa | - | - | 0 W/m² | - |
| 1777287286 | 16.67° C | 29% | 1009 hPa | - | - | 0 W/m² | - |
| 1777286361 | 16.11° C | 31% | 1009 hPa | - | - | 0 W/m² | - |
| 1777285437 | 13.89° C | 33% | 1009 hPa | - | - | 0 W/m² | - |
| 1777284513 | 12.78° C | 35% | 1009 hPa | - | - | 0 W/m² | - |
| 1777283589 | 12.22° C | 35% | 1009 hPa | - | - | 0 W/m² | - |
| 1777282664 | 11.67° C | 35% | 1009 hPa | - | - | 0 W/m² | - |
| 1777281740 | 11.11° C | 36% | 1009 hPa | - | - | 0 W/m² | - |
| 1777281006 | 11.11° C | 36% | 1009 hPa | - | - | 0 W/m² | - |
| 1777280082 | 10.56° C | 37% | 1009 hPa | - | - | 0 W/m² | - |
| 1777279158 | 10° C | 38% | 1009 hPa | - | - | 0 W/m² | - |
| 1777278234 | 10° C | 38% | 1009 hPa | - | - | 0 W/m² | - |
| 1777277309 | 9.44° C | 38% | 1009 hPa | - | - | 0 W/m² | - |
| 1777276659 | 9.44° C | 38% | 1010 hPa | - | - | 0 W/m² | - |
| 1777275806 | 8.89° C | 38% | 1009 hPa | - | - | 0 W/m² | - |
| 1777274881 | 8.89° C | 38% | 1010 hPa | - | - | 0 W/m² | - |
| 1777273957 | 8.33° C | 36% | 1010 hPa | - | - | 0 W/m² | - |
| 1777273033 | 8.33° C | 36% | 1010 hPa | - | - | 0 W/m² | - |
| 1777272109 | 7.78° C | 39% | 1010 hPa | - | - | 0 W/m² | - |
* Rain since midnight (hover to see other rain measurements)
** Current wind speed in m/s (hover to see current wind gust speed)